EW8320 Weather Reports


Display with metric or nautical units.
time (UTC)temp
F
wind
direction
speed
MPH
gust
MPH
rain 1hr
in
rain 24hr
in
rain mn
in
humidity
%
barometer
mb
20260508012421 65 79 0.0 0.0 0.00 0.00 0.00 26 1018.3
20260508011420 65 83 0.0 0.0 0.00 0.00 0.00 26 1018.2
20260508010518 65 92 0.0 0.0 0.00 0.00 0.00 25 1018.3
20260508005519 66 89 0.0 0.0 0.00 0.00 0.00 28 1018.4
20260508005418 66 99 0.0 0.0 0.00 0.00 0.00 28 1018.3
20260508003421 66 73 0.0 0.0 0.00 0.00 0.00 27 1018.5
20260508002419 67 90 0.0 0.0 0.00 0.00 0.00 28 1018.5
20260508001421 67 79 0.0 0.0 0.00 0.00 0.00 29 1018.5
20260508001320 67 87 0.0 0.0 0.00 0.00 0.00 29 1018.5
20260507235320 67 65 0.0 0.0 0.00 0.00 0.00 30 1018.3
20260507234418 67 64 0.0 0.0 0.00 0.00 0.00 31 1018.4
20260507233420 67 96 0.0 0.0 0.00 0.00 0.00 30 1018.4
20260507232420 67 86 0.0 0.0 0.00 0.00 0.00 31 1018.5
20260507231419 67 90 0.0 0.0 0.00 0.00 0.00 30 1018.6
20260507230420 66 54 0.0 0.0 0.00 0.00 0.00 30 1018.6
20260507225420 66 84 0.0 0.0 0.00 0.00 0.00 31 1018.7
20260507224519 67 96 0.0 0.0 0.00 0.00 0.00 31 1018.7
20260507223519 67 95 0.0 0.0 0.00 0.00 0.00 31 1018.9
20260507223421 67 100 0.0 0.0 0.00 0.00 0.00 31 1018.8
20260507222519 67 78 0.0 0.0 0.00 0.00 0.00 32 1018.9
20260507221521 66 62 0.0 0.0 0.00 0.00 0.00 31 1019.0
20260507220521 66 84 0.0 0.0 0.00 0.00 0.00 31 1019.1
20260507215521 66 48 0.0 0.0 0.00 0.00 0.00 32 1019.2
20260507214519 65 80 0.0 0.0 0.00 0.00 0.00 31 1019.2
20260507212520 66 85 0.0 0.0 0.00 0.00 0.00 31 1019.4
20260507211519 65 77 0.0 0.0 0.00 0.00 0.00 32 1019.5
20260507210521 64 97 0.0 0.0 0.00 0.00 0.00 33 1019.4
20260507205521 64 75 0.0 0.0 0.00 0.00 0.00 33 1019.7
20260507204618 65 87 0.0 0.0 0.00 0.00 0.00 34 1019.6
20260507204519 65 78 0.0 0.0 0.00 0.00 0.00 34 1019.8
20260507202521 64 106 0.0 0.0 0.00 0.00 0.00 36 1020.0
20260507201520 64 74 0.0 0.0 0.00 0.00 0.00 38 1019.9
20260507201419 64 98 0.0 0.0 0.00 0.00 0.00 38 1019.9
20260507200420 63 95 0.0 0.0 0.00 0.00 0.00 39 1020.0
20260507194419 63 90 0.0 0.0 0.00 0.00 0.00 42 1020.0
20260507193518 63 104 0.0 0.0 0.00 0.00 0.00 44 1020.0
20260507192522 62 75 0.0 0.0 0.00 0.00 0.00 43 1020.1
20260507191519 62 91 0.0 0.0 0.00 0.00 0.00 45 1020.2
20260507190536 62 90 0.0 0.0 0.00 0.00 0.00 46 1020.2
20260507185521 61 101 0.0 0.0 0.00 0.00 0.00 45 1020.3
20260507184518 61 41 0.0 0.0 0.00 0.00 0.00 45 1020.4
20260507183522 60 102 0.0 0.0 0.00 0.00 0.00 46 1020.4
20260507182522 60 77 0.0 0.0 0.00 0.00 0.00 48 1020.6
20260507181419 60 21 0.0 0.0 0.00 0.00 0.00 46 1020.6
20260507175520 59 91 0.0 0.0 0.00 0.00 0.00 45 1020.5
20260507174618 59 90 0.0 0.0 0.00 0.00 0.00 46 1020.7
20260507171620 60 357 0.0 0.0 0.00 0.00 0.00 45 1020.5
20260507170620 59 65 0.0 0.0 0.00 0.00 0.00 47 1020.6
20260507165620 59 37 0.0 0.0 0.00 0.00 0.00 47 1020.5
20260507164638 58 202 0.0 0.0 0.00 0.00 0.00 49 1020.6
20260507163620 57 157 0.0 0.0 0.00 0.00 0.00 51 1020.8
20260507162620 57 113 0.0 0.0 0.00 0.00 0.00 51 1020.7
20260507161719 56 226 0.0 0.0 0.00 0.00 0.00 52 1020.9
20260507160726 56 186 0.0 0.0 0.00 0.00 0.00 54 1020.9
20260507154920 60 218 0.0 0.0 0.00 0.00 0.00 100 1021.0
20260507153920 60 236 0.0 0.0 0.00 0.00 0.00 100 1020.8
20260507152926 59 265 0.0 0.0 0.00 0.00 0.00 98 1021.0
20260507152021 54 226 0.0 0.0 0.00 0.00 0.00 100 1020.8
20260507151118 57 254 0.0 0.0 0.00 0.00 0.00 100 1020.9
20260507150124 54 276 0.0 0.0 0.00 0.00 0.00 100 1020.8
20260507145120 54 229 0.0 0.0 0.00 0.00 0.00 95 1020.7
20260507144120 54 264 0.0 0.0 0.00 0.00 0.00 100 1020.6
20260507143120 54 246 0.0 0.0 0.00 0.00 0.00 100 1020.6
20260507141119 56 207 0.0 0.0 0.00 0.00 0.00 99 1020.3
20260507140119 55 263 0.0 0.0 0.00 0.00 0.00 100 1020.3
20260507135126 53 247 0.0 0.0 0.00 0.00 0.00 98 1020.2
20260507134122 51 258 0.0 0.0 0.00 0.00 0.00 100 1020.2
20260507133122 50 226 0.0 0.0 0.00 0.00 0.00 95 1020.2
20260507132122 53 261 0.0 0.0 0.00 0.00 0.00 100 1020.0
20260507131121 50 264 0.0 0.0 0.00 0.00 0.00 98 1019.7
20260507130219 41 277 0.0 0.0 0.00 0.00 0.00 100 1019.7
20260507125219 39 254 0.0 0.0 0.00 0.00 0.00 79 1019.5
20260507124222 39 227 0.0 0.0 0.00 0.00 0.00 79 1019.5
20260507123220 40 247 0.0 0.0 0.00 0.00 0.00 76 1019.5
20260507121238 41 270 0.0 0.0 0.00 0.00 0.00 76 1019.4
20260507120223 41 258 0.0 0.0 0.00 0.00 0.00 78 1019.3
20260507115320 41 270 0.0 0.0 0.00 0.00 0.00 77 1019.2
20260507114320 41 255 0.0 0.0 0.00 0.00 0.00 77 1019.2
20260507113324 41 67 0.0 0.0 0.00 0.00 0.00 76 1019.3
20260507111520 40 202 0.0 0.0 0.00 0.00 0.00 78 1019.2
20260507110619 37 337 0.0 0.0 0.00 0.00 0.00 77 1019.2
20260507105620 35 337 0.0 0.0 0.00 0.00 0.00 76 1019.1
20260507104619 38 202 0.0 0.0 0.00 0.00 0.00 74 1019.1
20260507103644 40 315 0.0 0.0 0.00 0.00 0.00 73 1019.1
20260507102721 41 270 0.0 0.0 0.00 0.00 0.00 73 1019.1
20260507102619 41 270 0.0 0.0 0.00 0.00 0.00 73 1019.2
20260507101719 41 255 0.0 0.0 0.00 0.00 0.00 70 1019.2
20260507100721 43 225 0.0 0.0 0.00 0.00 0.00 67 1019.4
20260507095720 44 202 0.0 0.0 0.00 0.00 0.00 66 1019.5
20260507094720 46 225 0.0 0.0 0.00 0.00 0.00 61 1019.4
20260507093720 48 337 0.0 0.0 0.00 0.00 0.00 56 1019.4
20260507092621 50 294 0.0 0.0 0.00 0.00 0.00 53 1019.2
20260507091637 49 271 0.0 0.0 0.00 0.00 0.00 54 1019.1
20260507085718 50 292 0.0 0.0 0.00 0.00 0.00 51 1019.2
20260507084724 53 325 0.0 0.0 0.00 0.00 0.00 46 1019.2
20260507083725 53 248 0.0 0.0 0.00 0.00 0.00 46 1019.2
20260507082819 55 360 0.0 0.0 0.00 0.00 0.00 45 1019.4
20260507081818 55 91 0.0 0.0 0.00 0.00 0.00 45 1019.2
20260507081722 55 86 0.0 0.0 0.00 0.00 0.00 45 1019.2
20260507080720 55 80 0.0 0.0 0.00 0.00 0.00 46 1019.2
20260507075720 54 81 0.0 0.0 0.00 0.00 0.00 49 1019.2
20260507074722 53 99 0.0 0.0 0.00 0.00 0.00 53 1019.1
20260507073733 54 288 0.0 0.0 0.00 0.00 0.00 53 1019.1
20260507072722 55 223 0.0 0.0 0.00 0.00 0.00 49 1019.0
20260507071723 56 334 0.0 0.0 0.00 0.00 0.00 49 1018.9
20260507070723 56 224 0.0 0.0 0.00 0.00 0.00 49 1019.1
20260507065808 56 351 0.0 0.0 0.00 0.00 0.00 50 1019.2
20260507065706 56 49 0.0 0.0 0.00 0.00 0.00 50 1019.1
20260507064801 59 352 0.0 0.0 0.00 0.00 0.00 91 1019.3
20260507063806 60 337 0.0 0.0 0.00 0.00 0.00 100 1019.4
20260507062804 65 360 0.0 0.0 0.00 0.00 0.00 99 1018.9
20260507061805 65 56 0.0 0.0 0.00 0.00 0.00 100 1018.9
20260507060902 65 203 0.0 0.0 0.00 0.00 0.00 99 1018.9
20260507055930 63 340 0.0 0.0 0.00 0.00 0.00 98 1019.1
20260507055831 62 337 0.0 0.0 0.00 0.00 0.00 96 1019.1
20260507054929 58 335 0.0 0.0 0.00 0.00 0.00 100 1018.9
20260507053932 56 360 0.0 0.0 0.00 0.00 0.00 47 1019.1
20260507051938 57 45 0.0 0.0 0.00 0.00 0.00 45 1019.3
20260507045932 59 360 0.0 0.0 0.00 0.00 0.00 44 1019.5
20260507045032 60 63 0.0 0.0 0.00 0.00 0.00 41 1019.6
20260507044041 59 64 0.0 0.0 0.00 0.00 0.00 42 1019.5
20260507043130 60 67 0.0 0.0 0.00 0.00 0.00 42 1019.4
20260507042131 59 44 0.0 0.0 0.00 0.00 0.00 44 1019.4
20260507041129 60 47 0.0 0.0 0.00 0.00 0.00 42 1019.3
20260507040131 58 51 0.0 0.0 0.00 0.00 0.00 49 1019.3
20260507035132 58 58 0.0 0.0 0.00 0.00 0.00 48 1019.3
20260507034231 61 54 0.0 0.0 0.00 0.00 0.00 40 1019.2
20260507033329 61 283 0.0 0.0 0.00 0.00 0.00 41 1019.0
20260507032429 59 252 0.0 0.0 0.00 0.00 0.00 46 1019.2
20260507032330 59 247 0.0 0.0 0.00 0.00 0.00 46 1019.2
20260507031332 60 247 0.0 0.0 0.00 0.00 0.00 44 1019.1
20260507030430 62 337 0.0 0.0 0.00 0.00 0.00 38 1019.0
20260507025430 64 299 0.0 0.0 0.00 0.00 0.00 36 1019.1
20260507024432 63 50 0.0 0.0 0.00 0.00 0.00 39 1018.9
20260507023530 63 32 0.0 0.0 0.00 0.00 0.00 41 1019.0
20260507022629 63 337 0.0 0.0 0.00 0.00 0.00 42 1019.0
20260507021632 64 22 0.0 0.0 0.00 0.00 0.00 44 1018.9
20260507020632 64 45 0.0 0.0 0.00 0.00 0.00 46 1019.1
20260507015730 65 65 0.0 0.0 0.00 0.00 0.00 44 1018.9
20260507014731 65 314 0.0 0.0 0.00 0.00 0.00 45 1019.0
20260507013730 66 8 0.0 0.0 0.00 0.00 0.00 46 1018.8